TimeEST,TemperatureF,Dew PointF,Humidity,Sea Level PressureIn,VisibilityMPH,Wind Direction,Wind SpeedMPH,Gust SpeedMPH,PrecipitationIn,Events,Conditions,WindDirDegrees,DateUTC
12:22 AM,39.2,39.2,100,30.40,3.0,South,3.5,-,N/A,,Overcast,190,2012-12-02 05:22:00
12:39 AM,39.2,39.2,100,30.39,2.5,South,4.6,-,N/A,,Overcast,170,2012-12-02 05:39:00
12:53 AM,39.9,39.0,97,30.39,2.5,South,5.8,-,N/A,,Overcast,170,2012-12-02 05:53:00
1:17 AM,39.2,39.2,100,30.37,3.0,SSW,3.5,-,N/A,,Overcast,210,2012-12-02 06:17:00
1:53 AM,39.9,39.0,97,30.38,3.0,South,4.6,-,N/A,,Overcast,190,2012-12-02 06:53:00
2:06 AM,39.2,39.2,100,30.37,2.5,SW,3.5,-,N/A,,Overcast,220,2012-12-02 07:06:00
2:26 AM,39.2,39.2,100,30.37,1.8,Calm,Calm,-,N/A,,Overcast,0,2012-12-02 07:26:00
2:40 AM,39.2,39.2,100,30.37,1.0,SW,3.5,-,N/A,,Overcast,220,2012-12-02 07:40:00
2:48 AM,39.2,39.2,100,30.37,0.8,Calm,Calm,-,N/A,,Overcast,0,2012-12-02 07:48:00
2:53 AM,39.9,39.9,100,30.38,1.0,Calm,Calm,-,N/A,,Overcast,0,2012-12-02 07:53:00
3:53 AM,39.9,39.9,100,30.37,1.0,Calm,Calm,-,N/A,,Overcast,0,2012-12-02 08:53:00
4:53 AM,39.9,39.9,100,30.35,1.0,Calm,Calm,-,N/A,,Overcast,0,2012-12-02 09:53:00
5:35 AM,39.2,39.2,100,30.33,1.2,SSW,3.5,-,N/A,,Overcast,200,2012-12-02 10:35:00
5:53 AM,39.9,39.9,100,30.33,1.8,Variable,4.6,-,N/A,,Overcast,0,2012-12-02 10:53:00
6:01 AM,39.2,39.2,100,30.32,2.0,Calm,Calm,-,N/A,,Overcast,0,2012-12-02 11:01:00
6:27 AM,41.0,39.2,93,30.31,3.0,SSW,4.6,-,N/A,,Overcast,210,2012-12-02 11:27:00
6:53 AM,41.0,39.0,93,30.32,3.0,SW,4.6,-,N/A,,Overcast,220,2012-12-02 11:53:00
7:06 AM,41.0,39.2,93,30.31,3.0,SSW,4.6,-,N/A,,Overcast,210,2012-12-02 12:06:00
7:42 AM,41.0,39.2,93,30.31,2.0,SW,4.6,-,N/A,,Overcast,230,2012-12-02 12:42:00
7:53 AM,41.0,39.0,93,30.32,2.0,SSW,4.6,-,N/A,,Overcast,200,2012-12-02 12:53:00
8:53 AM,42.1,39.9,92,30.31,2.5,SSW,5.8,-,N/A,,Overcast,200,2012-12-02 13:53:00
9:53 AM,43.0,39.9,89,30.29,2.5,SSW,5.8,-,N/A,,Overcast,200,2012-12-02 14:53:00
10:37 AM,44.6,39.2,81,30.26,3.0,SSW,5.8,-,N/A,,Overcast,200,2012-12-02 15:37:00
10:53 AM,44.1,39.9,85,30.26,3.0,SSW,9.2,-,N/A,,Overcast,210,2012-12-02 15:53:00
11:05 AM,44.6,39.2,81,30.25,3.0,SW,9.2,-,N/A,,Haze,220,2012-12-02 16:05:00
11:53 AM,45.0,39.9,82,30.23,3.0,SW,6.9,-,N/A,,Haze,220,2012-12-02 16:53:00
12:53 PM,46.0,39.9,79,30.19,3.0,SSW,5.8,-,N/A,,Haze,210,2012-12-02 17:53:00
1:10 PM,46.4,41.0,81,30.16,4.0,SSW,8.1,-,N/A,,Haze,200,2012-12-02 18:10:00
1:26 PM,48.2,41.0,76,30.15,4.0,SW,6.9,-,N/A,,Haze,220,2012-12-02 18:26:00
1:53 PM,46.9,41.0,80,30.14,4.0,SSW,9.2,-,N/A,,Haze,210,2012-12-02 18:53:00
2:53 PM,46.9,41.0,80,30.13,4.0,Variable,5.8,-,N/A,,Haze,0,2012-12-02 19:53:00
3:53 PM,46.9,41.0,80,30.11,4.0,Calm,Calm,-,N/A,,Haze,0,2012-12-02 20:53:00
4:25 PM,46.4,42.8,87,30.10,2.5,SSW,5.8,-,0.01,Rain,Light Rain,210,2012-12-02 21:25:00
4:53 PM,46.0,43.0,89,30.11,4.0,Calm,Calm,-,0.04,Rain,Light Rain,0,2012-12-02 21:53:00
5:53 PM,46.0,43.0,89,30.13,4.0,Calm,Calm,-,0.02,Rain,Light Rain,0,2012-12-02 22:53:00
6:53 PM,46.0,43.0,89,30.14,4.0,SW,4.6,-,0.00,Rain,Light Rain,220,2012-12-02 23:53:00
7:53 PM,46.0,44.1,93,30.14,3.0,SSW,5.8,-,0.01,Rain,Light Rain,210,2012-12-03 00:53:00
8:43 PM,46.4,44.6,93,30.13,3.0,SW,4.6,-,0.01,,Overcast,220,2012-12-03 01:43:00
8:53 PM,46.9,44.1,90,30.14,3.0,SSW,3.5,-,0.01,Rain,Light Rain,210,2012-12-03 01:53:00
9:53 PM,46.9,44.1,90,30.14,3.0,SSW,4.6,-,0.00,,Overcast,210,2012-12-03 02:53:00
10:53 PM,46.0,44.1,93,30.13,2.5,Calm,Calm,-,N/A,,Overcast,0,2012-12-03 03:53:00
11:53 PM,46.9,44.1,90,30.14,2.5,Calm,Calm,-,N/A,,Overcast,0,2012-12-03 04:53:00